Location: ???????
(60.4260°N, 46.9069°E)
Time: 05:10:21
(UTC+00:00)

Daily predictions for brighter satellites

Satellite Brightness Start Highest point End
(mag) Time Altitude Azimuth Time Altitude Azimuth Time Altitude Azimuth
Cosmos 1862 Rocket 4.2 00:00:48 13° S 00:04:33 55° E 00:08:54 10° NNE
CZ-4B R/B 1.6 00:04:46 10° SSE 00:08:16 75° ENE 00:11:48 10° NNW
Cosmos 1812 2.6 00:09:05 25° SSW 00:11:14 87° WNW 00:15:08 10° NNE
Cosmos 1782 Rocket 4.2 00:07:39 10° N 00:12:00 56° ENE 00:16:16 10° SSE
SL-16 R/B 4.2 00:10:44 10° WNW 00:11:27 11° W 00:11:27 11° W
SL-16 R/B 2.8 00:08:39 10° NW 00:14:17 61° NE 00:19:55 10° ESE
Cosmos 2333 Rocket 2.6 00:09:44 10° NW 00:14:59 40° WSW 00:20:13 10° S
Meteor 1-28 Rocket 3.6 00:14:00 29° SSW 00:15:24 41° W 00:18:59 10° NNW
SeaSat 1 2.4 00:11:30 10° SSE 00:16:23 60° WSW 00:21:18 10° NW
SL-08 R/B 4.2 00:15:16 24° SW 00:17:09 32° W 00:21:35 10° NNW
USA 234 4.1 00:13:47 10° S 00:18:54 24° SW 00:24:03 10° W
ERS-2 4.0 00:19:36 16° WNW 00:19:36 16° WNW 00:21:24 10° NW
Cosmos 1689 Rocket 2.9 00:16:35 10° SE 00:19:33 52° ENE 00:22:31 10° N
Cosmos 405 Rocket 2.9 00:18:01 10° NNW 00:21:34 45° W 00:23:49 20° SSW
Cosmos 1833 4.4 00:17:31 19° SSW 00:21:46 74° SE 00:27:32 10° NE
CZ-4C R/B 3.6 00:22:16 29° WSW 00:22:34 30° W 00:25:28 10° NNW
NOSS 3-3 (A) 4.4 00:16:41 10° WNW 00:23:42 79° SSW 00:31:42 10° SE
NOSS 3-3 (C) 4.4 00:16:47 10° WNW 00:23:48 80° SSW 00:31:48 10° SE
IRS-P3 4.2 00:18:59 10° NNE 00:24:19 66° WNW 00:28:12 19° SW
Cosmos 2322 Rocket 4.2 00:26:23 10° W 00:26:24 10° W 00:26:24 10° W
Cosmos 44 3.1 00:25:28 22° WSW 00:28:12 71° NNW 00:32:35 10° ENE
CZ-2C R/B 4.3 00:24:56 10° NNE 00:29:00 28° E 00:32:58 10° SSE
Cosmos 2360 Rocket 3.6 00:25:48 10° WNW 00:29:21 17° W 00:29:33 17° WSW
SAR-Lupe-4 4.0 00:28:02 21° SSW 00:29:56 38° W 00:33:18 10° NNW
CBERS-1 4.4 00:25:05 10° NNE 00:30:02 48° WNW 00:33:24 19° SW
Meteor 2-6 Rocket 4.3 00:28:35 19° SW 00:32:27 58° WNW 00:37:48 10° NNE
IDEFIX/ARIANE 42P 3.0 00:27:45 10° NNE 00:32:56 64° ESE 00:38:06 10° S
Sich 1 Rocket 4.1 00:29:42 10° N 00:34:08 64° ENE 00:38:30 10° SSE
CZ-2C R/B 3.0 00:32:42 10° NNE 00:36:48 78° ESE 00:40:52 10° SSW
Cosmos 724 4.3 00:34:15 18° SW 00:38:38 86° SE 00:44:29 10° ENE
Cosmos 1908 Rocket 3.6 00:34:54 10° NNW 00:39:17 61° W 00:43:36 10° S
TIMED 4.4 00:35:07 10° NW 00:39:31 74° WSW 00:43:52 10° SSE
Cosmos 2279 Rocket 4.0 00:33:38 10° NNW 00:39:54 87° ENE 00:46:10 10° SSE
Cosmos 1777 Rocket 4.4 00:36:17 19° WSW 00:39:59 53° NW 00:45:10 10° NNE
Cosmos 1536 3.6 00:37:45 10° NNW 00:41:21 32° W 00:43:54 16° SW
NOSS 7 (D) 3.7 00:40:18 27° WSW 00:41:37 83° NNW 00:44:20 10° ENE
SJ 16-02 1.5 00:38:35 13° SSW 00:42:32 72° ESE 00:46:57 10° NNE
SL-27 R/B 4.3 00:41:05 13° WNW 00:42:55 19° NW 00:45:23 10° N
COSMO-SKYMED 1 4.4 00:39:15 10° SE 00:43:12 36° ENE 00:47:12 10° N
Cosmos 2237 Rocket 2.2 00:38:58 10° NW 00:44:31 58° WSW 00:50:04 10° SSE
NOSS 0 Rocket 4.2 00:39:36 10° NW 00:45:26 45° WSW 00:51:14 10° S
Cosmos 44 Rocket 3.5 00:42:38 16° SW 00:46:19 64° SE 00:51:01 10° ENE
H-2A R/B 3.4 00:46:07 18° WSW 00:47:31 21° W 00:50:44 10° NW
Okean 2 Rocket 3.9 00:43:23 10° N 00:47:49 57° ENE 00:52:15 10° SSE
Cosmos 1733 Rocket 4.1 00:44:34 10° NNW 00:48:16 27° W 00:50:57 15° SW
deb Chang Zheng 4 3.6 00:51:39 10° NNE 00:55:58 83° ESE 01:00:16 10° SSW
IRS-1D 4.3 00:51:57 10° N 00:56:25 34° NW 01:00:09 14° WSW
PSLV R/B 4.0 00:53:08 10° SSE 00:57:22 85° ENE 01:01:37 10° NNW
ADEOS 4.5 00:52:56 10° NNE 00:58:03 51° E 01:03:09 10° S
Lacrosse 5 rocket 3.3 00:56:50 10° S 00:59:38 19° SE 01:02:33 10° E
Cosmos 1937 Rocket 3.9 00:55:26 10° SSW 01:00:38 64° ESE 01:05:48 10° NE
Cosmos 1898 Rocket 3.6 00:56:10 10° SSW 01:01:21 79° ESE 01:06:35 10° NE
Cosmos 839 Rocket 4.3 00:56:08 14° WSW 01:01:45 79° NNW 01:09:22 10° ENE
Genesis I 3.4 00:59:21 14° SW 01:02:40 65° SE 01:06:34 10° ENE
Cosmos 2082 Rocket 3.6 00:57:58 10° WNW 01:02:59 31° NNW 01:08:03 10° NE
Meteor 2-9 Rocket 4.3 00:58:20 10° NNW 01:04:09 81° WSW 01:10:02 10° S
Okean 1-7 3.4 00:59:51 10° S 01:04:11 68° E 01:08:35 10° NNE
Cosmos 1544 3.0 01:03:50 10° NNW 01:07:28 83° WSW 01:11:06 10° S
Cosmos 405 2.9 01:06:15 10° SSW 01:09:48 73° WNW 01:13:23 10° NNE
Cosmos 1743 3.2 01:07:33 10° NNW 01:11:12 40° W 01:14:50 10° SSW
Cosmos 1975 2.8 01:10:15 10° NNW 01:14:13 59° W 01:18:09 10° S
Cosmos 2297 Rocket 3.8 01:09:37 10° S 01:14:42 35° ESE 01:19:47 10° NE
Cosmos 1048 Rocket 4.1 01:09:52 10° NW 01:15:04 60° WSW 01:20:19 10° SSE
COSMOS 2441 4.4 01:11:13 10° NNE 01:16:04 84° ESE 01:20:52 10° SSW
CZ-2D R/B 4.1 01:12:56 10° N 01:17:06 42° WNW 01:21:10 10° SW
COSMOS 2428 3.9 01:13:06 10° NW 01:17:12 21° WSW 01:21:18 10° SSW
Cosmos 2242 Rocket 3.7 01:13:59 10° SSW 01:18:33 65° WNW 01:23:09 10° N
Cosmos 1300 Rocket 3.6 01:15:50 10° NNW 01:20:12 84° ENE 01:24:32 10° SSE
Cosmos 494 Rocket 4.0 01:15:12 10° NW 01:20:28 78° WSW 01:25:45 10° SSE
Okean 1 3.3 01:16:46 10° SSW 01:20:45 89° ESE 01:24:45 10° NNE
Cosmos 1515 4.4 01:17:14 10° S 01:20:57 56° E 01:24:43 10° NNE
Cosmos 1607 4.3 01:15:49 10° W 01:21:59 61° NNW 01:28:16 10° ENE
USA 267 3.5 01:16:04 10° E 01:22:34 63° SSE 01:29:04 10° WSW
Spot 4 Rocket 4.5 01:18:11 10° NNE 01:23:07 46° WNW 01:28:02 10° SW
Meteor 1-27 Rocket 4.1 01:20:04 10° SW 01:25:29 48° WNW 01:31:05 10° NNE
Cosmos 1634 Rocket 4.5 01:20:06 10° NNW 01:25:46 39° W 01:31:24 10° SSW
Tsikada Rocket 4.3 01:20:39 10° SW 01:26:54 52° WNW 01:33:13 10° N
ATLAS 5 CENTAUR R/B 2.2 01:23:14 10° WNW 01:28:25 86° SSW 01:34:32 10° ESE
EP 3 3.9 01:27:33 12° WSW 01:29:27 67° NNW 01:31:51 10° ENE
Cosmos 2285 Rocket 4.2 01:23:38 10° SW 01:29:58 64° NW 01:36:23 10° NNE
CZ-2D R/B 3.8 01:26:53 10° N 01:30:42 20° NW 01:34:31 10° W
SKYMED 2 3.9 01:26:47 10° SSE 01:31:07 76° ENE 01:35:30 10° NNW
Geosat 4.1 01:26:56 10° NE 01:32:01 84° SE 01:37:04 10° SW
Cosmos 1356 3.4 01:30:06 10° NNW 01:33:34 88° ENE 01:37:01 10° SSE
Cosmos 2219 Rocket 3.6 01:30:36 10° WNW 01:33:44 15° W 01:36:53 10° SW
CBERS 1 LM4 rocket 4.4 01:29:29 10° NNE 01:34:16 75° WNW 01:39:08 10° SSW
Cosmos 1833 Rocket 4.3 01:29:31 10° WNW 01:34:23 28° N 01:39:16 10° ENE
Cosmos 990 Rocket 4.0 01:29:24 10° SW 01:34:32 69° NW 01:39:43 10° NNE
Resurs 1-4 Rocket 3.9 01:31:39 10° N 01:35:08 18° NW 01:38:36 10° W
H-2A R/B 4.1 01:31:20 10° NNE 01:35:26 40° E 01:39:22 10° SSE
COSMOS 2487 4.0 01:33:55 10° W 01:36:41 22° NW 01:39:30 10° NNE
Cosmos 1484 Rocket 4.2 01:35:04 10° NNE 01:38:50 42° E 01:42:32 10° S
Cosmos 2227 Rocket 3.4 01:34:11 10° S 01:39:29 43° ESE 01:44:49 10° NE
PSLV R/B 3.6 01:35:16 10° NNE 01:39:34 67° WNW 01:43:53 10° SSW
CZ-4B R/B 4.3 01:35:48 10° NNE 01:39:40 44° E 01:43:43 10° S
ARIANE 5 R/B 3.5 01:36:15 10° N 01:40:45 32° NW 01:45:18 10° WSW
Cosmos 1943 3.8 01:35:54 10° NW 01:41:37 65° NE 01:47:18 10° SE
ADEOS II 3.3 01:37:28 10° N 01:41:48 26° NW 01:46:07 10° WSW
